Portada
METAR-TAF:

METAR-TAF

Aeroports :

Grafton, Austràlia

latitud: 29-45-36S, longitud: 153-01-48E, altitud: 34 m

Observació

L'informe es va fer fa 48 minuts, a les 22:30 UTC
Vent 10 kt del Nord/Nord-Est
Temperatura 23°C
Humitat 78%
Pressió 1008 hPa
Visibilitat 10 km o més
Cel ennuvolat a una alçada de 1500 ft

METAR: YGFN 122230Z AUTO 02010KT 9999 // BKN015 23/19 Q1008

Hora: 10:18 (23:18 UTC)


TAF: manca

Observacions i pronòstics meteorològics de més de 4000 aeroports (METAR i TAF).

Les estacions disponibles són els punts grocs i vermells al mapa.

Posi el ratolí al punt desitjat per veure el nom de l'estació.

Feu clic per veure les observacions i els pronòstics meteorològics.

Per canviar el mapa: feu clic els botons verds amb una creu de color negre per apropar; al botó verd amb un guió per allunyar la imatge; o en les fletxes verdes per a mapes adjacents.


METAR-TAF: